Terminal Aerodrome Forecast
Issued by NWS Houston/Galveston, TX

Home | Current Version | Previous Version | Text Only | Print | Product List | Glossary On
Versions: 1 2 3 4 5 6 7 8 9 10 11 12 13 14 15 16 17 18 19 20 21 22 23 24 25 26 27 28 29 30 31 32 33 34 35 36
000
FTUS44 KHGX 061726
TAFGLS
TAF
KGLS 061726Z 0618/0718 12014KT P6SM FEW010
     FM070600 14015KT P6SM SCT015 BKN025
     FM071300 13014KT P6SM FEW015=

USA.gov is the U.S. government's official web portal to all federal, state and local government web resources and services.